Temp
22 22 22 22 22 21 21 21 21 21 20 20 19 19 19 20 20 20 20 20 20 20 20 20 20 20 20 20 20 20 20 20 19 19 20 20 20 20 19 19 19 19
22 22 22 22 22 22 21 22 21 21 21 21 20 19 20 20 20 20 20 20 20 20 20 20 20 20 20 20 20 20 20 20 19 19 20 20 20 20 20 19 20 20
22 22 22 22 22 22 22 22 22 21 21 21 21 20 20 20 20 20 20 20 20 20 20 20 20 20 20 20 20 20 20 20 20 19 19 20 20 20 20 19 19 20
22 22 22 22 22 22 22 22 22 22 22 21 21 21 21 20 20 21 21 21 20 20 20 20 20 20 20 20 20 20 20 20 20 20 20 20 20 20 20 20 19 19
22 22 22 22 22 22 22 22 22 22 22 22 22 21 21 21 21 21 21 21 21 21 21 21 21 21 21 21 20 20 20 20 20 20 20 20 20 20 20 20 20 20
22 22 22 22 22 22 22 22 22 22 22 22 22 22 22 22 22 21 21 21 21 21 21 21 21 21 21 21 21 21 21 20 19 20 21 20 20 19 19 20 20 21
23 22 22 22 22 22 22 23 23 22 22 22 22 22 22 22 22 22 22 22 21 21 20 20 21 21 21 21 21 21 21 21 20 20 21 20 20 20 19 20 20 21
23 23 22 22 22 22 23 23 23 23 23 22 22 22 22 23 22 22 22 22 22 21 21 21 21 21 21 21 21 21 21 21 21 21 21 21 21 21 20 20 20 21
23 23 23 23 22 22 23 23 23 23 23 23 23 23 22 23 23 22 22 22 22 22 22 22 22 22 21 21 21 21 21 21 20 21 21 21 21 21 21 21 20 21
23 23 23 23 23 22 22 23 23 23 23 23 23 23 22 23 23 23 23 23 22 22 22 22 22 22 22 22 22 22 22 21 21 21 22 21 21 21 21 20 20 20
23 23 23 23 23 23 23 23 22 22 23 23 23 23 22 23 23 23 23 23 23 22 22 22 22 22 22 22 22 22 22 22 22 22 22 22 22 21 21 21 21 21
23 23 23 23 23 23 23 22 22 22 22 23 23 23 23 23 23 23 23 23 23 23 23 23 23 23 22 22 22 22 22 22 22 22 22 22 22 22 22 22 21 21
23 23 23 23 23 23 23 22 22 22 22 22 23 23 23 23 23 23 23 23 23 23 23 23 23 23 23 23 23 22 22 22 22 22 22 22 22 22 21 21 21 21
23 23 23 23 23 23 23 22 22 22 22 22 23 23 23 23 22 22 23 23 23 23 23 23 23 23 23 23 23 23 22 23 23 22 22 22 22 22 22 21 21 21
23 23 23 23 23 23 23 23 23 23 23 23 23 23 23 23 22 22 22 23 23 23 23 23 23 23 23 23 23 23 23 23 23 23 23 23 23 22 22 22 21 21
23 23 23 23 23 23 23 23 23 23 23 23 23 23 23 23 23 22 22 22 22 22 23 23 23 23 23 24 24 23 23 23 23 23 23 23 23 23 23 22 22 21
22 22 23 22 23 23 23 23 23 23 23 23 23 23 23 23 23 23 22 22 22 22 22 22 22 22 23 24 24 24 24 24 23 23 23 23 23 23 23 23 22 22
21 22 22 22 22 23 23 23 23 23 23 23 23 23 23 23 23 23 23 23 22 22 22 22 22 22 22 23 24 24 24 24 23 23 23 23 24 24 23 23 23 23
21 21 22 22 22 22 22 22 22 22 23 23 23 23 23 23 23 23 23 23 23 22 22 22 22 22 22 23 24 24 24 24 23 23 23 23 23 23 23 23 23 23
20 21 21 21 22 22 22 22 22 22 22 22 22 22 22 23 23 23 23 23 23 23 23 23 22 22 22 23 23 24 24 24 23 23 23 23 23 23 23 23 23 23
19 20 21 21 21 21 22 22 22 22 22 22 22 22 22 23 23 23 23 23 23 23 23 23 23 22 22 23 23 23 23 23 23 22 23 23 23 23 23 23 23 23
19 19 20 20 21 21 21 21 22 22 22 22 22 21 21 21 22 23 23 23 23 23 23 23 23 23 22 22 23 23 22 22 22 22 22 22 23 23 23 23 23 23
19 19 19 20 20 20 21 21 22 22 22 22 22 22 21 21 21 22 22 23 23 23 23 23 23 23 23 22 22 22 22 21 21 21 22 22 23 23 23 24 24 23
20 19 19 19 19 20 20 21 21 21 22 22 22 22 21 21 21 21 21 21 22 22 22 23 23 23 23 22 22 22 22 21 21 21 21 21 22 23 23 23 24 24
19 19 19 19 19 19 19 20 20 21 21 21 21 21 21 21 21 21 21 21 21 21 22 22 22 22 22 22 23 22 22 22 21 21 21 21 22 22 23 23 23 24
18 18 19 19 19 19 19 19 19 20 20 20 20 20 20 20 20 21 21 21 21 21 21 21 22 22 22 22 23 22 22 22 21 21 21 21 22 22 23 23 23 24
Height
1586 1588 1590 1592 1594 1595 1597 1598 1599 1600 1602 1603 1604 1605 1606 1606 1607 1608 1609 1610 1610 1611 1611 1612 1613 1613 1614 1614 1614 1615 1615 1616 1617 1617 1617 1618 1618 1619 1619 1620 1620 1621
1584 1586 1588 1590 1592 1594 1595 1597 1598 1599 1600 1602 1603 1604 1605 1606 1607 1607 1608 1609 1610 1610 1611 1612 1612 1613 1613 1614 1614 1615 1615 1615 1616 1617 1617 1618 1618 1618 1619 1619 1620 1620
1582 1584 1586 1588 1590 1592 1594 1595 1597 1598 1599 1600 1602 1603 1604 1605 1606 1607 1607 1608 1609 1610 1610 1611 1612 1612 1613 1613 1614 1614 1615 1615 1616 1616 1616 1617 1617 1618 1618 1619 1619 1620
1580 1582 1583 1586 1588 1590 1592 1593 1595 1596 1597 1599 1600 1601 1603 1604 1605 1605 1606 1607 1608 1609 1609 1610 1611 1611 1612 1613 1613 1613 1614 1614 1615 1615 1616 1616 1616 1617 1617 1618 1619 1619
1578 1580 1581 1583 1586 1587 1589 1591 1592 1594 1595 1597 1598 1599 1601 1602 1603 1604 1605 1606 1607 1608 1609 1609 1610 1610 1611 1612 1612 1613 1613 1614 1614 1614 1615 1615 1615 1616 1616 1617 1617 1618
1575 1577 1579 1581 1583 1585 1586 1588 1590 1592 1594 1595 1596 1598 1599 1600 1601 1602 1603 1604 1606 1606 1607 1608 1609 1609 1610 1611 1611 1612 1612 1613 1613 1613 1614 1614 1614 1615 1616 1616 1616 1617
1573 1575 1577 1579 1580 1582 1583 1586 1588 1589 1591 1593 1594 1596 1597 1598 1599 1600 1602 1603 1604 1605 1606 1607 1607 1608 1609 1610 1610 1611 1611 1612 1612 1612 1612 1613 1613 1614 1614 1615 1615 1615
1570 1572 1575 1576 1578 1580 1581 1583 1585 1586 1589 1590 1592 1593 1595 1596 1597 1598 1600 1601 1602 1603 1604 1605 1606 1607 1608 1608 1609 1609 1610 1610 1611 1611 1611 1611 1612 1612 1613 1613 1614 1614
1568 1570 1572 1574 1575 1577 1578 1580 1582 1584 1586 1587 1589 1591 1592 1594 1595 1596 1597 1598 1600 1601 1602 1603 1604 1605 1606 1606 1607 1608 1609 1609 1610 1610 1610 1610 1611 1611 1611 1612 1612 1613
1565 1567 1569 1571 1573 1574 1576 1578 1579 1581 1582 1584 1586 1588 1589 1591 1592 1594 1595 1596 1597 1598 1599 1601 1602 1603 1604 1605 1605 1606 1607 1608 1608 1608 1608 1609 1609 1610 1610 1611 1611 1611
1562 1565 1567 1568 1570 1572 1573 1576 1577 1578 1580 1581 1583 1585 1587 1588 1589 1591 1592 1593 1594 1596 1597 1598 1599 1600 1602 1603 1604 1604 1605 1606 1606 1606 1607 1607 1607 1608 1608 1609 1609 1610
1559 1562 1564 1565 1567 1569 1571 1573 1575 1576 1577 1578 1580 1582 1583 1585 1586 1587 1589 1590 1591 1593 1594 1595 1596 1598 1599 1600 1602 1602 1603 1604 1604 1604 1605 1605 1605 1606 1606 1607 1607 1608
1556 1559 1561 1563 1565 1567 1569 1571 1572 1574 1575 1576 1577 1579 1580 1582 1583 1584 1585 1587 1588 1590 1591 1592 1593 1595 1596 1597 1599 1600 1601 1601 1602 1602 1603 1603 1603 1604 1605 1605 1606 1606
1553 1555 1558 1559 1562 1563 1566 1568 1569 1571 1572 1573 1574 1576 1577 1579 1580 1581 1582 1583 1585 1586 1588 1589 1590 1591 1592 1594 1595 1597 1598 1598 1599 1600 1600 1601 1601 1601 1602 1603 1604 1604
1550 1552 1554 1556 1558 1560 1562 1564 1566 1568 1569 1570 1571 1573 1574 1576 1577 1579 1580 1580 1582 1583 1584 1586 1586 1587 1588 1590 1592 1593 1595 1596 1596 1597 1598 1598 1598 1599 1600 1600 1601 1602
1547 1549 1551 1553 1554 1556 1558 1560 1562 1564 1566 1567 1568 1570 1571 1573 1574 1576 1577 1577 1578 1579 1581 1582 1582 1583 1584 1586 1588 1590 1591 1593 1593 1594 1594 1595 1595 1596 1596 1597 1598 1599
1544 1546 1548 1550 1551 1553 1555 1557 1559 1561 1562 1563 1565 1566 1568 1569 1571 1572 1573 1574 1575 1576 1577 1578 1579 1579 1580 1582 1584 1586 1588 1589 1590 1590 1591 1591 1592 1592 1593 1594 1595 1596
1541 1543 1544 1546 1548 1549 1551 1553 1555 1557 1558 1560 1561 1562 1564 1565 1566 1568 1569 1571 1572 1572 1573 1574 1575 1575 1576 1578 1580 1582 1584 1585 1586 1587 1587 1587 1588 1589 1589 1590 1591 1592
1538 1540 1541 1542 1544 1546 1548 1550 1551 1553 1554 1556 1557 1559 1560 1561 1562 1563 1565 1566 1567 1568 1569 1570 1570 1571 1572 1573 1575 1577 1579 1581 1581 1582 1583 1583 1584 1585 1586 1586 1587 1588
1536 1537 1538 1539 1541 1542 1544 1546 1547 1549 1550 1552 1553 1555 1555 1556 1558 1559 1560 1561 1562 1563 1564 1565 1566 1566 1567 1568 1570 1572 1574 1576 1577 1578 1578 1579 1580 1580 1581 1582 1583 1584
1534 1534 1534 1536 1537 1538 1540 1541 1543 1544 1546 1548 1549 1550 1551 1552 1553 1554 1555 1556 1557 1558 1559 1560 1561 1562 1563 1564 1566 1568 1570 1571 1572 1573 1573 1574 1575 1575 1576 1577 1578 1579
1531 1531 1532 1532 1533 1534 1535 1536 1538 1540 1541 1543 1545 1546 1547 1547 1548 1549 1550 1551 1552 1553 1554 1555 1556 1557 1558 1560 1562 1564 1566 1567 1568 1568 1569 1569 1570 1571 1571 1572 1573 1573
1527 1528 1529 1529 1529 1530 1530 1531 1533 1534 1536 1538 1539 1541 1543 1543 1544 1544 1545 1546 1547 1548 1549 1550 1551 1553 1554 1555 1557 1559 1561 1563 1563 1564 1564 1565 1566 1566 1567 1567 1568 1569
1524 1524 1525 1526 1525 1525 1525 1526 1528 1529 1531 1533 1534 1536 1537 1539 1540 1541 1541 1542 1542 1543 1544 1545 1547 1548 1549 1551 1553 1555 1556 1558 1559 1559 1560 1560 1561 1562 1563 1563 1563 1564
1520 1519 1520 1521 1521 1522 1522 1523 1524 1525 1526 1527 1529 1530 1532 1534 1535 1536 1537 1537 1538 1539 1540 1541 1542 1543 1545 1546 1548 1550 1552 1553 1554 1555 1555 1556 1557 1558 1558 1559 1559 1560
1517 1516 1517 1517 1518 1518 1519 1520 1521 1523 1524 1524 1525 1526 1527 1528 1530 1531 1532 1533 1534 1535 1536 1537 1537 1538 1539 1540 1542 1544 1547 1548 1549 1550 1550 1551 1552 1553 1554 1554 1554 1555
Wind_Speed
24 22 21 20 19 19 19 19 19 18 17 16 14 13 13 13 11 10 9 9 9 9 9 8 8 8 7 7 6 6 6 5 5 5 5 6 6 6 7 7 7 7
25 24 23 22 21 21 20 19 19 19 18 18 16 15 15 14 12 11 10 9 9 9 9 9 9 9 9 8 7 6 6 6 6 6 4 5 6 6 6 7 7 8
25 26 25 23 22 22 21 20 20 20 20 19 19 18 17 14 13 12 11 10 10 10 10 10 9 9 9 8 7 7 7 6 6 7 6 5 5 5 5 6 7 7
24 25 25 24 24 23 22 22 21 21 21 20 20 20 18 17 16 14 12 11 11 10 10 10 10 10 10 9 9 8 7 7 7 8 8 6 6 6 6 6 7 7
24 24 24 25 25 25 24 24 23 22 22 21 20 20 20 20 19 16 15 14 12 11 10 10 10 11 11 10 10 9 8 8 8 8 8 8 7 7 7 7 7 7
24 23 23 24 25 27 26 25 24 23 22 22 21 21 21 21 20 19 18 16 14 13 12 11 11 11 11 11 11 10 9 9 9 9 8 8 8 8 8 9 8 8
25 23 22 23 24 26 27 26 25 25 24 24 23 23 22 22 22 21 20 18 16 15 14 14 13 13 12 11 11 10 10 10 10 10 9 9 10 10 10 10 9 9
26 25 24 23 23 25 26 26 26 26 26 25 25 24 24 24 23 22 22 20 19 18 17 17 16 15 14 13 12 11 10 9 10 10 10 10 11 11 11 11 11 10
27 26 26 25 24 24 24 25 26 27 27 27 26 26 25 25 25 24 23 22 21 21 20 20 19 18 16 16 14 12 11 10 11 10 10 10 11 11 12 12 13 12
28 28 27 27 26 25 24 24 25 26 27 28 27 27 27 27 26 26 26 24 22 22 22 22 22 20 19 18 17 15 13 12 12 12 11 11 11 12 13 13 14 14
29 29 29 29 28 27 26 24 24 25 26 28 28 28 28 28 28 28 28 27 25 24 23 23 23 22 21 20 19 18 17 15 15 14 14 13 13 13 14 14 15 16
30 30 31 30 30 29 28 26 25 25 25 27 28 29 29 29 29 29 29 29 27 26 25 25 25 24 24 23 22 21 20 19 18 17 16 16 15 15 15 15 16 17
30 30 31 31 31 30 29 28 27 26 26 26 26 28 29 30 30 30 30 29 28 27 27 27 26 26 26 25 24 23 23 22 20 20 19 19 18 17 17 16 17 17
28 28 30 31 31 31 30 29 29 28 28 27 27 27 27 28 29 29 29 30 29 28 28 28 28 27 27 27 26 25 25 25 23 22 21 21 21 20 19 18 18 18
28 28 29 31 31 32 31 31 31 30 30 30 29 28 27 27 28 28 28 29 30 30 30 30 30 29 29 28 28 27 27 27 26 25 24 24 24 23 21 21 20 19
29 30 30 31 32 31 30 30 31 32 32 32 31 30 29 28 28 28 28 28 29 30 31 31 32 33 32 30 29 29 28 28 28 28 27 26 26 26 25 24 22 22
30 30 31 32 32 31 30 30 30 32 33 32 32 31 31 30 30 30 29 29 29 30 30 31 32 34 34 33 31 30 29 29 29 29 29 29 28 28 28 27 25 24
30 30 30 31 32 32 31 31 31 32 33 33 32 32 31 31 30 30 30 30 30 30 30 30 31 33 35 34 33 32 31 31 31 31 31 31 30 30 30 29 28 27
29 30 30 30 30 31 31 32 33 32 32 32 32 32 32 32 31 30 30 30 31 31 31 31 31 33 35 35 34 33 33 33 33 33 32 31 31 31 31 31 30 30
26 28 29 29 29 30 30 32 32 32 31 31 31 33 34 33 31 31 31 31 31 32 33 33 33 34 35 35 34 34 34 34 34 34 34 33 33 33 33 33 32 32
23 25 28 28 28 29 29 30 30 30 30 31 31 32 33 33 32 32 32 32 32 32 33 34 34 35 35 35 34 33 33 33 33 34 35 35 35 35 35 35 35 34
21 23 25 27 28 29 29 28 28 28 28 29 30 31 31 32 32 33 33 33 33 33 34 35 35 35 35 34 33 32 30 30 32 33 35 36 36 37 37 37 36 36
18 21 23 25 27 29 30 29 27 27 27 28 30 30 30 30 31 32 33 33 34 34 35 35 35 35 35 34 33 31 30 29 30 32 34 36 37 38 38 39 39 38
19 19 21 23 24 25 28 29 29 28 28 28 30 30 30 29 29 29 30 31 33 34 34 35 35 35 35 35 34 32 31 30 30 31 33 35 37 38 39 39 40 40
22 21 20 22 23 24 25 26 27 29 29 29 29 30 30 29 28 28 28 29 30 31 32 33 34 34 35 35 35 33 32 31 31 31 33 35 36 38 39 40 41 41
21 24 23 20 20 23 25 24 23 25 26 27 28 28 28 28 28 28 28 28 29 28 29 30 32 33 35 36 36 34 33 33 33 34 35 36 37 38 39 40 41 42
Wind_Direction
223 224 224 224 222 221 222 221 220 219 217 214 210 208 211 207 201 205 209 209 211 211 211 210 206 205 208 212 210 208 211 199 199 216 209 204 214 219 224 226 228 230
223 224 224 224 224 224 224 223 222 221 220 218 213 213 216 212 206 207 212 214 216 217 218 217 214 211 210 214 214 215 221 213 207 220 223 211 216 222 223 227 231 235
224 225 224 223 224 224 225 225 224 222 222 221 218 218 218 217 216 213 212 214 217 220 222 221 221 219 215 214 216 217 225 224 216 225 236 231 224 227 227 227 232 240
224 225 224 223 224 225 225 226 226 223 222 222 221 220 218 219 222 219 213 212 213 217 222 223 225 227 223 218 218 221 224 227 224 227 236 241 237 233 229 227 228 232
224 224 224 223 223 226 226 225 225 223 223 223 222 221 219 219 222 221 217 214 213 216 221 223 226 229 229 226 224 225 226 230 234 235 236 239 242 240 236 236 231 227
224 223 224 224 222 224 225 224 224 224 224 224 222 221 221 221 221 221 221 218 216 219 221 222 225 226 229 231 230 231 230 229 234 242 242 238 239 237 235 238 236 232
224 222 223 224 223 224 224 223 223 223 224 225 224 222 220 221 221 221 223 222 219 219 220 221 223 224 225 228 229 232 233 229 230 238 242 242 242 238 236 239 239 237
224 224 223 223 224 224 224 223 222 223 224 225 225 223 221 220 221 222 225 225 224 223 222 223 224 223 224 226 227 228 232 234 236 241 241 242 245 244 242 244 243 241
225 226 226 225 225 225 224 223 222 223 224 225 226 226 224 222 221 223 226 226 227 227 225 224 224 222 223 226 228 229 231 234 239 246 247 245 247 247 245 246 247 247
229 228 229 228 228 228 226 224 223 224 225 225 226 227 227 226 223 224 227 228 226 228 227 225 224 223 224 227 231 233 235 237 240 247 251 251 252 249 246 245 246 248
233 231 232 231 230 230 229 227 225 225 227 227 226 227 228 229 228 226 229 230 229 228 227 226 225 226 228 231 236 239 239 241 244 249 251 253 254 253 250 248 246 246
239 235 235 234 233 233 231 230 228 225 227 229 228 228 229 231 232 231 231 232 232 231 230 230 230 232 234 235 238 242 243 243 245 249 252 254 255 255 255 254 252 249
243 239 239 238 236 235 232 231 230 228 228 230 231 230 229 231 233 234 234 233 233 233 234 234 235 236 238 238 238 241 245 247 247 249 253 255 256 256 255 254 254 253
245 242 242 241 240 239 236 234 233 233 232 234 236 234 232 231 232 235 237 237 236 234 234 236 237 237 238 239 239 240 243 247 249 249 251 254 256 256 255 253 250 249
248 246 244 243 242 241 240 238 237 238 238 239 240 238 236 235 234 235 238 241 242 240 237 237 238 238 237 237 238 239 241 246 249 250 251 253 255 256 256 256 253 249
251 251 248 246 245 244 242 241 240 241 242 242 243 242 240 240 239 238 238 241 245 246 244 242 242 241 239 236 236 238 240 244 248 251 251 252 254 255 256 256 254 252
255 254 253 250 249 247 246 244 243 243 244 244 245 245 244 243 242 242 242 242 245 248 249 248 247 245 242 238 236 237 239 242 246 249 251 252 253 255 256 255 253 252
259 257 256 254 252 251 250 249 247 247 247 246 246 246 246 245 244 243 243 243 244 246 248 249 249 249 247 241 237 236 236 239 243 247 250 252 253 254 255 255 254 252
260 258 257 256 256 255 254 253 253 252 250 249 248 248 249 248 246 244 242 242 243 244 246 247 248 250 250 245 240 237 235 236 240 243 246 249 251 252 253 253 253 252
256 258 257 257 257 257 256 256 256 255 254 253 252 253 252 250 247 245 244 241 240 242 243 245 246 249 250 247 242 239 237 237 239 241 242 244 246 249 250 251 251 251
249 254 257 257 257 257 257 257 257 258 257 256 255 255 254 253 250 247 246 243 241 241 242 243 244 246 248 248 245 242 240 239 240 240 242 243 244 246 247 248 250 250
245 249 254 256 257 257 257 256 256 257 257 258 257 254 252 252 253 251 248 246 244 244 245 244 244 245 247 247 247 245 243 241 240 240 241 242 242 244 246 246 248 249
239 242 247 252 255 256 257 256 254 255 255 256 257 254 249 247 250 252 252 251 250 249 248 246 245 245 246 246 245 245 243 241 240 240 241 242 242 243 244 245 246 247
230 233 239 244 246 248 251 253 253 254 255 255 256 255 251 245 243 246 250 253 254 253 252 251 248 247 248 247 245 244 242 240 241 241 242 243 243 243 243 244 245 246
227 225 227 234 239 240 242 247 250 251 253 254 255 255 253 249 243 240 242 247 250 251 253 254 253 251 250 249 246 244 242 241 240 241 242 243 244 244 243 243 244 245
237 229 225 228 237 242 240 240 242 245 247 248 249 250 249 247 243 240 240 242 243 245 247 250 253 253 252 251 249 246 243 241 240 239 240 241 243 244 244 244 244 245